Location: Bittkow
(50.3000°N, 19.0000°E)
Time: 12:21:07
(UTC+00:00)

ATLAS 5 CENTAUR R/B - Pass Details

Date: 19 September 2020
Orbit: 527 x 1131 km, 63.4° (Epoch: 14 October)

Event Time Altitude Azimuth Distance (km) Brightness Sun altitude
Exits shadow 02:07:57 27° 310° (NW) 1,215 2.9 -21.7°
Maximum altitude 02:08:55 30° 333° (NNW) 1,171 3.0 -21.6°
Drops below altitude 10° 02:13:17 10° 35° (NE) 2,213 5.3 -21.0°
Sets 02:16:08 0° 46° (NE) 3,252 6.6 -20.6°
